,,Stat5,,Stat1,,Stat2,,Stat3,,Stat4,,Wind1,,Wind1,
time,status,PA1M_AVG,status,PR1M_SUM,status,RH1M_AVG,status,SR1M_AVG,status,TA1M_AVG,status,W1dAve1m,status,W1sAve1m,
2001-11-06, 00:00:00,VALID,919.448,VALID,0,VALID,99.3657,VALID,-0.0509425,VALID,18.883,VALID,356,VALID,0.887019,
2001-11-06, 00:01:00,VALID,919.443,VALID,0,VALID,99.3746,VALID,0,VALID,18.9123,VALID,26,VALID,0.683594,
2001-11-06, 00:02:00,VALID,919.424,VALID,0,VALID,99.3873,VALID,-0.0169808,VALID,18.9352,VALID,18,VALID,0.827714,
2001-11-06, 00:03:00,VALID,919.422,VALID,0,VALID,99.3873,VALID,-0.0169808,VALID,18.9642,VALID,12,VALID,0.984375,
2001-11-06, 00:04:00,VALID,919.411,VALID,0,VALID,99.3797,VALID,-0.0169808,VALID,18.9702,VALID,6,VALID,0.664931,
2001-11-06, 00:05:00,VALID,919.397,VALID,0.2,VALID,99.3886,VALID,-0.0339617,VALID,18.9834,VALID,20,VALID,0.488487,
2001-11-06, 00:06:00,VALID,919.394,VALID,0,VALID,99.3759,VALID,-0.0339617,VALID,18.9739,VALID,21,VALID,0.551953,
2001-11-06, 00:07:00,VALID,919.396,VALID,0,VALID,99.3823,VALID,-0.0339617,VALID,18.9767,VALID,21,VALID,0.380859,
2001-11-06, 00:08:00,VALID,919.397,VALID,0,VALID,99.3886,VALID,-0.0679233,VALID,19.006,VALID,25,VALID,0.35617,
2001-11-06, 00:09:00,VALID,919.379,VALID,0,VALID,99.3873,VALID,-0.0339617,VALID,19.0192,VALID,36,VALID,0.368164,
2001-11-06, 00:10:00,VALID,919.348,VALID,0,VALID,99.3784,VALID,-0.0339617,VALID,19.0157,VALID,30,VALID,0.416016,
2001-11-06, 00:11:00,VALID,919.334,VALID,0,VALID,99.3962,VALID,-0.0169808,VALID,19.0485,VALID,19,VALID,0.695735,
2001-11-06, 00:12:00,VALID,919.323,VALID,0,VALID,99.395,VALID,-0.0339617,VALID,19.0448,VALID,23,VALID,0.71224,
2001-11-06, 00:13:00,VALID,919.306,VALID,0,VALID,99.3912,VALID,-0.0169808,VALID,19.0574,VALID,24,VALID,0.510156,
2001-11-06, 00:14:00,VALID,919.288,VALID,0,VALID,99.3975,VALID,0,VALID,19.0798,VALID,22,VALID,0.561849,
2001-11-06, 00:15:00,VALID,919.266,VALID,0,VALID,99.3886,VALID,-0.0339617,VALID,19.0671,VALID,13,VALID,0.836939,
2001-11-06, 00:16:00,VALID,919.244,VALID,0,VALID,99.3899,VALID,-0.0339617,VALID,19.0771,VALID,17,VALID,0.399089,
2001-11-06, 00:17:00,VALID,919.235,VALID,0,VALID,99.3772,VALID,-0.0509425,VALID,19.0644,VALID,28,VALID,0.802344,
2001-11-06, 00:18:00,VALID,919.215,VALID,0,VALID,99.3772,VALID,-0.0679233,VALID,19.0381,VALID,22,VALID,1.01696,
2001-11-06, 00:19:00,VALID,919.197,VALID,0,VALID,99.3759,VALID,-0.0679233,VALID,19.0256,VALID,2,VALID,0.938345,
2001-11-06, 00:20:00,VALID,919.18,VALID,0,VALID,99.3797,VALID,-0.0679233,VALID,19.0318,VALID,19,VALID,0.866797,
2001-11-06, 00:21:00,VALID,919.163,VALID,0,VALID,99.3734,VALID,-0.0509425,VALID,19.0358,VALID,13,VALID,0.554905,
2001-11-06, 00:22:00,VALID,919.151,VALID,0,VALID,99.3632,VALID,-0.0169808,VALID,19.0159,VALID,16,VALID,0.63762,
2001-11-06, 00:23:00,VALID,919.141,VALID,0,VALID,99.3746,VALID,-0.0339617,VALID,19.0224,VALID,19,VALID,1.03585,
2001-11-06, 00:24:00,VALID,919.112,VALID,0,VALID,99.3606,VALID,-0.101885,VALID,18.9836,VALID,326,VALID,0.861384,
2001-11-06, 00:25:00,VALID,919.109,VALID,0,VALID,99.367,VALID,-0.0849042,VALID,18.9543,VALID,27,VALID,1.05228,
2001-11-06, 00:26:00,VALID,919.095,VALID,0,VALID,99.3797,VALID,-0.0509425,VALID,18.9834,VALID,20,VALID,0.755279,
2001-11-06, 00:27:00,VALID,919.077,VALID,0,VALID,99.3772,VALID,-0.0509425,VALID,18.9898,VALID,342,VALID,0.599301,
2001-11-06, 00:28:00,VALID,919.068,VALID,0,VALID,99.3683,VALID,-0.0679233,VALID,18.964,VALID,17,VALID,0.432813,
2001-11-06, 00:29:00,VALID,919.047,VALID,0,VALID,99.3772,VALID,-0.0509425,VALID,18.9605,VALID,14,VALID,0.427885,
2001-11-06, 00:30:00,VALID,919.023,VALID,0,VALID,99.3823,VALID,-0.0169808,VALID,18.9806,VALID,20,VALID,1.12784,
2001-11-06, 00:31:00,VALID,918.999,VALID,0,VALID,99.3873,VALID,-0.0339617,VALID,18.9834,VALID,6,VALID,0.812283,
2001-11-06, 00:32:00,VALID,918.988,VALID,0,VALID,99.3924,VALID,-0.0339617,VALID,19.0028,VALID,17,VALID,0.772821,
2001-11-06, 00:33:00,VALID,918.98,VALID,0,VALID,99.3861,VALID,-0.0679233,VALID,19.012,VALID,13,VALID,0.215745,
2001-11-06, 00:34:00,VALID,918.953,VALID,0,VALID,99.3912,VALID,-0.0169808,VALID,19.0062,VALID,6,VALID,0.919727,
2001-11-06, 00:35:00,VALID,918.927,VALID,0,VALID,99.3734,VALID,-0.0169808,VALID,18.9608,VALID,2,VALID,0.985045,
2001-11-06, 00:36:00,VALID,918.918,VALID,0,VALID,99.381,VALID,-0.0679233,VALID,18.9605,VALID,20,VALID,0.800465,
2001-11-06, 00:37:00,VALID,918.902,VALID,0,VALID,99.3861,VALID,-0.0339617,VALID,18.9864,VALID,21,VALID,0.842371,
2001-11-06, 00:38:00,VALID,918.877,VALID,0,VALID,99.3962,VALID,-0.0849042,VALID,19.006,VALID,8,VALID,0.472098,
2001-11-06, 00:39:00,VALID,918.862,VALID,0,VALID,99.3848,VALID,-0.0679233,VALID,18.9928,VALID,318,VALID,0.453926,
2001-11-06, 00:40:00,VALID,918.85,VALID,0,VALID,99.3746,VALID,-0.0339617,VALID,18.9511,VALID,317,VALID,0.470228,
2001-11-06, 00:41:00,VALID,918.836,VALID,0,VALID,99.3784,VALID,-0.0849042,VALID,18.925,VALID,318,VALID,0.728207,
2001-11-06, 00:42:00,VALID,918.816,VALID,0,VALID,99.3835,VALID,-0.0509425,VALID,18.9186,VALID,354,VALID,0.765402,
2001-11-06, 00:43:00,VALID,918.811,VALID,0,VALID,99.3886,VALID,-0.101885,VALID,18.9382,VALID,18,VALID,0.866386,
2001-11-06, 00:44:00,VALID,918.787,VALID,0,VALID,99.3924,VALID,-0.0509425,VALID,18.9638,VALID,8,VALID,0.564867,
2001-11-06, 00:45:00,VALID,918.765,VALID,0,VALID,99.3899,VALID,-0.0339617,VALID,18.9608,VALID,4,VALID,0.989366,
2001-11-06, 00:46:00,VALID,918.736,VALID,0,VALID,99.3899,VALID,-0.0339617,VALID,18.9352,VALID,320,VALID,0.754729,
2001-11-06, 00:47:00,VALID,918.72,VALID,0,VALID,99.3873,VALID,-0.0509425,VALID,18.9414,VALID,352,VALID,0.626603,
2001-11-06, 00:48:00,VALID,918.699,VALID,0,VALID,99.3912,VALID,-0.0679233,VALID,18.9382,VALID,7,VALID,0.380664,
2001-11-06, 00:49:00,VALID,918.692,VALID,0,VALID,99.3886,VALID,-0.0849042,VALID,18.9225,VALID,7,VALID,0.145536,
2001-11-06, 00:50:00,VALID,918.674,VALID,0,VALID,99.381,VALID,-0.101885,VALID,18.9163,VALID,8,VALID,0.590794,
2001-11-06, 00:51:00,VALID,918.666,VALID,0,VALID,99.3873,VALID,-0.0509425,VALID,18.9119,VALID,7,VALID,0.5,
2001-11-06, 00:52:00,VALID,918.656,VALID,0,VALID,99.4039,VALID,-0.0849042,VALID,18.9483,VALID,25,VALID,0.778348,
2001-11-06, 00:53:00,VALID,918.639,VALID,0,VALID,99.4102,VALID,-0.101885,VALID,18.9769,VALID,21,VALID,0.669872,
2001-11-06, 00:54:00,VALID,918.63,VALID,0,VALID,99.4001,VALID,-0.0849042,VALID,18.9938,VALID,22,VALID,0.551943,
2001-11-06, 00:55:00,VALID,918.612,VALID,0,VALID,99.3975,VALID,-0.101885,VALID,18.9585,VALID,1,VALID,0.298109,
2001-11-06, 00:56:00,VALID,918.614,VALID,0,VALID,99.395,VALID,-0.0679233,VALID,18.9382,VALID,360,VALID,0.00892857,
2001-11-06, 00:57:00,VALID,918.598,VALID,0,VALID,99.4013,VALID,-0.101885,VALID,18.9647,VALID,360,VALID,0.0975561,
2001-11-06, 00:58:00,VALID,918.578,VALID,0,VALID,99.395,VALID,-0.101885,VALID,18.9513,VALID,352,VALID,0.194129,
2001-11-06, 00:59:00,VALID,918.566,VALID,0,VALID,99.3937,VALID,-0.0849042,VALID,18.9613,VALID,352,VALID,0.154948,
2001-11-06, 01:00:00,VALID,918.549,VALID,0,VALID,99.4039,VALID,-0.101885,VALID,18.9747,VALID,8,VALID,0.560897,
2001-11-06, 01:01:00,VALID,918.535,VALID,0,VALID,99.395,VALID,-0.0679233,VALID,18.9714,VALID,16,VALID,0.657652,
2001-11-06, 01:02:00,VALID,918.515,VALID,0,VALID,99.3988,VALID,-0.0849042,VALID,18.968,VALID,360,VALID,0.236523,
2001-11-06, 01:03:00,VALID,918.489,VALID,0,VALID,99.3988,VALID,-0.101885,VALID,18.9573,VALID,11,VALID,0.583482,
2001-11-06, 01:04:00,VALID,918.462,VALID,0,VALID,99.4064,VALID,-0.0679233,VALID,18.9707,VALID,345,VALID,0.722762,
2001-11-06, 01:05:00,VALID,918.454,VALID,0,VALID,99.3924,VALID,-0.0849042,VALID,18.929,VALID,1,VALID,0.648438,
2001-11-06, 01:06:00,VALID,918.44,VALID,0,VALID,99.3924,VALID,-0.0849042,VALID,18.9324,VALID,338,VALID,0.532812,
2001-11-06, 01:07:00,VALID,918.412,VALID,0,VALID,99.3886,VALID,-0.0339617,VALID,18.9096,VALID,310,VALID,0.376803,
2001-11-06, 01:08:00,VALID,918.407,VALID,0,VALID,99.3873,VALID,-0.0679233,VALID,18.9128,VALID,323,VALID,0.184755,
2001-11-06, 01:09:00,VALID,918.402,VALID,0,VALID,99.3861,VALID,-0.0509425,VALID,18.9163,VALID,330,VALID,0.240132,
2001-11-06, 01:10:00,VALID,918.408,VALID,0,VALID,99.3823,VALID,-0.0679233,VALID,18.8837,VALID,315,VALID,0.479911,
2001-11-06, 01:11:00,VALID,918.401,VALID,0,VALID,99.3708,VALID,-0.0679233,VALID,18.8706,VALID,323,VALID,0.515825,
2001-11-06, 01:12:00,VALID,918.387,VALID,0,VALID,99.3734,VALID,-0.101885,VALID,18.8636,VALID,346,VALID,0.691761,
2001-11-06, 01:13:00,VALID,918.366,VALID,0,VALID,99.3708,VALID,-0.101885,VALID,18.8482,VALID,351,VALID,0.721354,
2001-11-06, 01:14:00,VALID,918.348,VALID,0,VALID,99.3772,VALID,-0.0849042,VALID,18.8385,VALID,346,VALID,0.603002,
2001-11-06, 01:15:00,VALID,918.337,VALID,0,VALID,99.3746,VALID,-0.0849042,VALID,18.8251,VALID,6,VALID,0.797476,
2001-11-06, 01:16:00,VALID,918.309,VALID,0,VALID,99.3734,VALID,-0.0679233,VALID,18.8415,VALID,356,VALID,0.881836,
2001-11-06, 01:17:00,VALID,918.298,VALID,0,VALID,99.3797,VALID,-0.0849042,VALID,18.8286,VALID,340,VALID,0.61808,
2001-11-06, 01:18:00,VALID,918.292,VALID,0,VALID,99.3759,VALID,-0.0679233,VALID,18.8318,VALID,352,VALID,0.556799,
2001-11-06, 01:19:00,VALID,918.269,VALID,0,VALID,99.3759,VALID,-0.0169808,VALID,18.8381,VALID,6,VALID,0.868566,
2001-11-06, 01:20:00,VALID,918.25,VALID,0,VALID,99.3759,VALID,0,VALID,18.841,VALID,357,VALID,0.61875,
2001-11-06, 01:21:00,VALID,918.245,VALID,0,VALID,99.3683,VALID,0,VALID,18.8514,VALID,13,VALID,0.336138,
2001-11-06, 01:22:00,VALID,918.233,VALID,0,VALID,99.3708,VALID,-0.0169808,VALID,18.8314,VALID,340,VALID,0.517948,
2001-11-06, 01:23:00,VALID,918.223,VALID,0,VALID,99.3708,VALID,0,VALID,18.8117,VALID,333,VALID,0.156044,
2001-11-06, 01:24:00,VALID,918.208,VALID,0,VALID,99.3581,VALID,0.0169808,VALID,18.8053,VALID,327,VALID,0.52433,
2001-11-06, 01:25:00,VALID,918.201,VALID,0,VALID,99.3606,VALID,0.0169808,VALID,18.8125,VALID,342,VALID,0.292067,
2001-11-06, 01:26:00,VALID,918.188,VALID,0,VALID,99.3632,VALID,0,VALID,18.8189,VALID,1,VALID,0.682528,
2001-11-06, 01:27:00,VALID,918.16,VALID,0,VALID,99.3632,VALID,0,VALID,18.812,VALID,356,VALID,0.772135,
2001-11-06, 01:28:00,VALID,918.154,VALID,0,VALID,99.3568,VALID,0,VALID,18.8152,VALID,3,VALID,0.514186,
2001-11-06, 01:29:00,VALID,918.141,VALID,0,VALID,99.3632,VALID,0,VALID,18.8152,VALID,19,VALID,0.489383,
2001-11-06, 01:30:00,VALID,918.131,VALID,0,VALID,99.367,VALID,0,VALID,18.8316,VALID,19,VALID,0.0507813,
2001-11-06, 01:31:00,VALID,918.121,VALID,0,VALID,99.3683,VALID,0,VALID,18.8314,VALID,324,VALID,0.254464,
2001-11-06, 01:32:00,VALID,918.102,VALID,0,VALID,99.3657,VALID,0.0169808,VALID,18.8318,VALID,300,VALID,0.281039,
2001-11-06, 01:33:00,VALID,918.1,VALID,0,VALID,99.3619,VALID,0,VALID,18.8162,VALID,290,VALID,0.402344,
2001-11-06, 01:34:00,VALID,918.086,VALID,0,VALID,99.3759,VALID,0,VALID,18.8187,VALID,319,VALID,0.366071,
2001-11-06, 01:35:00,VALID,918.082,VALID,0,VALID,99.3556,VALID,0,VALID,18.8122,VALID,358,VALID,0.58734,
2001-11-06, 01:36:00,VALID,918.069,VALID,0,VALID,99.3581,VALID,0,VALID,18.8189,VALID,8,VALID,0.519215,
2001-11-06, 01:37:00,VALID,918.058,VALID,0,VALID,99.3505,VALID,0,VALID,18.8053,VALID,5,VALID,0.0810033,
2001-11-06, 01:38:00,VALID,918.051,VALID,0,VALID,99.3416,VALID,-0.0169808,VALID,18.8159,VALID,5,VALID,0,
2001-11-06, 01:39:00,VALID,918.046,VALID,0,VALID,99.3581,VALID,-0.0169808,VALID,18.7924,VALID,5,VALID,0,
2001-11-06, 01:40:00,VALID,918.029,VALID,0,VALID,99.3543,VALID,0,VALID,18.8085,VALID,5,VALID,0,
2001-11-06, 01:41:00,VALID,918.018,VALID,0,VALID,99.3568,VALID,0.0169808,VALID,18.8251,VALID,5,VALID,0.18533,
2001-11-06, 01:42:00,VALID,918.002,VALID,0,VALID,99.3657,VALID,0,VALID,18.8447,VALID,343,VALID,0.14741,
2001-11-06, 01:43:00,VALID,917.979,VALID,0,VALID,99.3683,VALID,0,VALID,18.8507,VALID,351,VALID,0.280649,
2001-11-06, 01:44:00,VALID,917.973,VALID,0,VALID,99.3708,VALID,0,VALID,18.8572,VALID,358,VALID,0.299805,
2001-11-06, 01:45:00,VALID,917.961,VALID,0,VALID,99.3721,VALID,0,VALID,18.8604,VALID,356,VALID,0.0861607,
2001-11-06, 01:46:00,VALID,917.959,VALID,0,VALID,99.3644,VALID,-0.0339617,VALID,18.8738,VALID,245,VALID,0.325802,
2001-11-06, 01:47:00,VALID,917.958,VALID,0,VALID,99.3556,VALID,0,VALID,18.8549,VALID,221,VALID,0.493336,
2001-11-06, 01:48:00,VALID,917.958,VALID,0,VALID,99.3606,VALID,0,VALID,18.8512,VALID,221,VALID,0.217634,
2001-11-06, 01:49:00,VALID,917.951,VALID,0,VALID,99.3543,VALID,0,VALID,18.8341,VALID,188,VALID,0.425681,
2001-11-06, 01:50:00,VALID,917.934,VALID,0,VALID,99.3594,VALID,0,VALID,18.8408,VALID,185,VALID,0.144848,
2001-11-06, 01:51:00,VALID,917.941,VALID,0,VALID,99.3556,VALID,0,VALID,18.8348,VALID,185,VALID,0,
2001-11-06, 01:52:00,VALID,917.935,VALID,0,VALID,99.3505,VALID,0,VALID,18.8378,VALID,185,VALID,0.0100446,
2001-11-06, 01:53:00,VALID,917.927,VALID,0,VALID,99.3556,VALID,0.0169808,VALID,18.8413,VALID,186,VALID,0.0476763,
2001-11-06, 01:54:00,VALID,917.922,VALID,0,VALID,99.3581,VALID,0.0169808,VALID,18.841,VALID,186,VALID,0.0132576,
2001-11-06, 01:55:00,VALID,917.915,VALID,0,VALID,99.3568,VALID,0.0169808,VALID,18.848,VALID,188,VALID,0.0249566,
2001-11-06, 01:56:00,VALID,917.912,VALID,0,VALID,99.3466,VALID,0,VALID,18.8346,VALID,215,VALID,0.100946,
2001-11-06, 01:57:00,VALID,917.905,VALID,0,VALID,99.3556,VALID,0,VALID,18.8284,VALID,309,VALID,0.305288,
2001-11-06, 01:58:00,VALID,917.9,VALID,0,VALID,99.3619,VALID,0,VALID,18.8376,VALID,28,VALID,0.270898,
2001-11-06, 01:59:00,VALID,917.892,VALID,0,VALID,99.3568,VALID,0,VALID,18.8577,VALID,27,VALID,0.129464,
2001-11-06, 02:00:00,VALID,917.898,VALID,0,VALID,99.3695,VALID,-0.0169808,VALID,18.854,VALID,27,VALID,0.247677,
2001-11-06, 02:01:00,VALID,917.887,VALID,0,VALID,99.3594,VALID,0,VALID,18.8644,VALID,27,VALID,0.0668658,
2001-11-06, 02:02:00,VALID,917.89,VALID,0,VALID,99.3568,VALID,-0.0169808,VALID,18.8574,VALID,27,VALID,0.171205,
2001-11-06, 02:03:00,VALID,917.885,VALID,0,VALID,99.3454,VALID,-0.0509425,VALID,18.8256,VALID,25,VALID,0.270433,
2001-11-06, 02:04:00,VALID,917.89,VALID,0,VALID,99.3441,VALID,-0.101885,VALID,18.7943,VALID,24,VALID,0.28315,
2001-11-06, 02:05:00,VALID,917.888,VALID,0,VALID,99.3416,VALID,-0.101885,VALID,18.7945,VALID,17,VALID,0.525288,
2001-11-06, 02:06:00,VALID,917.874,VALID,0,VALID,99.3314,VALID,-0.101885,VALID,18.765,VALID,15,VALID,0.631027,
2001-11-06, 02:07:00,VALID,917.863,VALID,0,VALID,99.3225,VALID,-0.101885,VALID,18.746,VALID,11,VALID,0.684896,
2001-11-06, 02:08:00,VALID,917.863,VALID,0,VALID,99.3377,VALID,-0.101885,VALID,18.7327,VALID,11,VALID,0.431581,
2001-11-06, 02:09:00,VALID,917.874,VALID,0,VALID,99.3365,VALID,-0.101885,VALID,18.7364,VALID,1,VALID,0.311198,
2001-11-06, 02:10:00,VALID,917.857,VALID,0,VALID,99.3416,VALID,-0.101885,VALID,18.7232,VALID,341,VALID,0.137541,
2001-11-06, 02:11:00,VALID,917.861,VALID,0,VALID,99.3454,VALID,-0.135847,VALID,18.7428,VALID,328,VALID,0.119391,
2001-11-06, 02:12:00,VALID,917.862,VALID,0,VALID,99.3505,VALID,-0.101885,VALID,18.7463,VALID,328,VALID,0.078125,
2001-11-06, 02:13:00,VALID,917.86,VALID,0,VALID,99.3556,VALID,-0.101885,VALID,18.7428,VALID,318,VALID,0.245536,
2001-11-06, 02:14:00,VALID,917.848,VALID,0,VALID,99.3517,VALID,-0.101885,VALID,18.7495,VALID,285,VALID,0.268792,
2001-11-06, 02:15:00,VALID,917.849,VALID,0,VALID,99.339,VALID,-0.0849042,VALID,18.7361,VALID,249,VALID,0.283778,
2001-11-06, 02:16:00,VALID,917.843,VALID,0,VALID,99.3568,VALID,-0.0849042,VALID,18.7297,VALID,238,VALID,0.175223,
2001-11-06, 02:17:00,VALID,917.831,VALID,0,VALID,99.3556,VALID,-0.0849042,VALID,18.7359,VALID,238,VALID,0.16266,
2001-11-06, 02:18:00,VALID,917.832,VALID,0,VALID,99.3454,VALID,-0.0849042,VALID,18.7264,VALID,233,VALID,0.53315,
2001-11-06, 02:19:00,VALID,917.825,VALID,0,VALID,99.3479,VALID,-0.0339617,VALID,18.7123,VALID,225,VALID,0.416324,
2001-11-06, 02:20:00,VALID,917.82,VALID,0,VALID,99.3632,VALID,-0.0169808,VALID,18.729,VALID,200,VALID,0.535045,
2001-11-06, 02:21:00,VALID,917.819,VALID,0,VALID,99.367,VALID,-0.0169808,VALID,18.7319,VALID,211,VALID,0.365585,
2001-11-06, 02:22:00,VALID,917.803,VALID,0,VALID,99.3657,VALID,0,VALID,18.7354,VALID,211,VALID,0.2384,
2001-11-06, 02:23:00,VALID,917.791,VALID,0,VALID,99.3746,VALID,-0.0509425,VALID,18.7389,VALID,211,VALID,0.0379774,
2001-11-06, 02:24:00,VALID,917.773,VALID,0,VALID,99.3734,VALID,-0.0339617,VALID,18.7451,VALID,211,VALID,0.0160362,
2001-11-06, 02:25:00,VALID,917.761,VALID,0,VALID,99.3695,VALID,-0.0509425,VALID,18.7617,VALID,211,VALID,0.119792,
2001-11-06, 02:26:00,VALID,917.757,VALID,0,VALID,99.3759,VALID,-0.0169808,VALID,18.7608,VALID,210,VALID,0.269922,
2001-11-06, 02:27:00,VALID,917.746,VALID,0,VALID,99.3746,VALID,-0.0339617,VALID,18.7709,VALID,228,VALID,0.14308,
2001-11-06, 02:28:00,VALID,917.751,VALID,0,VALID,99.3759,VALID,0,VALID,18.7642,VALID,345,VALID,0.128378,
2001-11-06, 02:29:00,VALID,917.753,VALID,0,VALID,99.3734,VALID,-0.0339617,VALID,18.7608,VALID,343,VALID,0.0477941,
2001-11-06, 02:30:00,VALID,917.741,VALID,0,VALID,99.3517,VALID,-0.0169808,VALID,18.7421,VALID,259,VALID,0.48058,
2001-11-06, 02:31:00,VALID,917.719,VALID,0,VALID,99.3454,VALID,0,VALID,18.7255,VALID,244,VALID,0.587941,
2001-11-06, 02:32:00,VALID,917.705,VALID,0,VALID,99.3556,VALID,-0.0509425,VALID,18.6989,VALID,242,VALID,0.59924,
2001-11-06, 02:33:00,VALID,917.703,VALID,0,VALID,99.3606,VALID,0,VALID,18.71,VALID,242,VALID,0.419819,
2001-11-06, 02:34:00,VALID,917.69,VALID,0,VALID,99.3606,VALID,-0.0339617,VALID,18.713,VALID,241,VALID,0.33817,
2001-11-06, 02:35:00,VALID,917.67,VALID,0,VALID,99.3543,VALID,0,VALID,18.7063,VALID,317,VALID,0.191306,
2001-11-06, 02:36:00,VALID,917.661,VALID,0,VALID,99.3772,VALID,-0.0849042,VALID,18.7096,VALID,28,VALID,0.191051,
2001-11-06, 02:37:00,VALID,917.658,VALID,0,VALID,99.3695,VALID,-0.0679233,VALID,18.7128,VALID,27,VALID,0.267578,
2001-11-06, 02:38:00,VALID,917.656,VALID,0,VALID,99.3683,VALID,-0.101885,VALID,18.7128,VALID,25,VALID,0.562706,
2001-11-06, 02:39:00,VALID,917.639,VALID,0,VALID,99.3759,VALID,-0.0509425,VALID,18.7324,VALID,20,VALID,0.644431,
2001-11-06, 02:40:00,VALID,917.63,VALID,0,VALID,99.3721,VALID,-0.0509425,VALID,18.7255,VALID,359,VALID,0.771094,
2001-11-06, 02:41:00,VALID,917.62,VALID,0,VALID,99.3581,VALID,-0.0509425,VALID,18.7063,VALID,347,VALID,0.634598,
2001-11-06, 02:42:00,VALID,917.621,VALID,0,VALID,99.3556,VALID,0,VALID,18.7004,VALID,343,VALID,0.592694,
2001-11-06, 02:43:00,VALID,917.611,VALID,0,VALID,99.3657,VALID,-0.0169808,VALID,18.684,VALID,3,VALID,0.477252,
2001-11-06, 02:44:00,VALID,917.602,VALID,0,VALID,99.3606,VALID,-0.0509425,VALID,18.7001,VALID,15,VALID,0.293527,
2001-11-06, 02:45:00,VALID,917.597,VALID,0,VALID,99.3695,VALID,-0.0339617,VALID,18.7004,VALID,13,VALID,0.414663,
2001-11-06, 02:46:00,VALID,917.587,VALID,0,VALID,99.367,VALID,-0.0679233,VALID,18.7034,VALID,11,VALID,0.58087,
2001-11-06, 02:47:00,VALID,917.593,VALID,0,VALID,99.3594,VALID,-0.0509425,VALID,18.6967,VALID,12,VALID,0.643709,
2001-11-06, 02:48:00,VALID,917.584,VALID,0,VALID,99.3517,VALID,-0.0169808,VALID,18.687,VALID,25,VALID,0.583259,
2001-11-06, 02:49:00,VALID,917.585,VALID,0,VALID,99.3594,VALID,-0.0339617,VALID,18.6932,VALID,26,VALID,0.423878,
2001-11-06, 02:50:00,VALID,917.588,VALID,0,VALID,99.353,VALID,-0.0339617,VALID,18.6902,VALID,25,VALID,0.078125,
2001-11-06, 02:51:00,VALID,917.585,VALID,0,VALID,99.3454,VALID,-0.0509425,VALID,18.6837,VALID,24,VALID,0,
2001-11-06, 02:52:00,VALID,917.587,VALID,0,VALID,99.3428,VALID,-0.101885,VALID,18.6745,VALID,24,VALID,0.0246711,
2001-11-06, 02:53:00,VALID,917.582,VALID,0,VALID,99.3479,VALID,-0.0679233,VALID,18.6773,VALID,24,VALID,0,
2001-11-06, 02:54:00,VALID,917.569,VALID,0,VALID,99.3543,VALID,-0.0339617,VALID,18.684,VALID,24,VALID,0,
2001-11-06, 02:55:00,VALID,917.57,VALID,0,VALID,99.3403,VALID,-0.101885,VALID,18.6877,VALID,24,VALID,0,
2001-11-06, 02:56:00,VALID,917.561,VALID,0,VALID,99.3441,VALID,-0.0679233,VALID,18.6805,VALID,24,VALID,0.0675676,
2001-11-06, 02:57:00,VALID,917.553,VALID,0,VALID,99.3517,VALID,-0.0169808,VALID,18.7004,VALID,315,VALID,0.241958,
2001-11-06, 02:58:00,VALID,917.555,VALID,0,VALID,99.3441,VALID,-0.0849042,VALID,18.687,VALID,267,VALID,0.304018,
2001-11-06, 02:59:00,VALID,917.55,VALID,0,VALID,99.339,VALID,-0.0339617,VALID,18.6907,VALID,266,VALID,0.356771,
2001-11-06, 03:00:00,VALID,917.545,VALID,0,VALID,99.3594,VALID,-0.0169808,VALID,18.6867,VALID,265,VALID,0.411318,
2001-11-06, 03:01:00,VALID,917.561,VALID,0,VALID,99.3568,VALID,-0.0169808,VALID,18.6872,VALID,264,VALID,0.181332,
2001-11-06, 03:02:00,VALID,917.55,VALID,0,VALID,99.3568,VALID,-0.0339617,VALID,18.6805,VALID,264,VALID,0.191071,
2001-11-06, 03:03:00,VALID,917.548,VALID,0,VALID,99.3517,VALID,-0.0679233,VALID,18.6969,VALID,264,VALID,0.0641026,
2001-11-06, 03:04:00,VALID,917.553,VALID,0,VALID,99.3606,VALID,-0.0849042,VALID,18.7036,VALID,264,VALID,0.0118371,
2001-11-06, 03:05:00,VALID,917.536,VALID,0,VALID,99.3556,VALID,-0.0679233,VALID,18.7098,VALID,264,VALID,0,
2001-11-06, 03:06:00,VALID,917.533,VALID,0,VALID,99.3657,VALID,-0.0679233,VALID,18.7133,VALID,265,VALID,0.183388,
2001-11-06, 03:07:00,VALID,917.515,VALID,0,VALID,99.3479,VALID,-0.101885,VALID,18.7031,VALID,265,VALID,0.0580929,
2001-11-06, 03:08:00,VALID,917.523,VALID,0,VALID,99.3581,VALID,-0.0849042,VALID,18.7197,VALID,265,VALID,0,
2001-11-06, 03:09:00,VALID,917.499,VALID,0,VALID,99.3505,VALID,-0.0849042,VALID,18.7165,VALID,265,VALID,0.0122768,
2001-11-06, 03:10:00,VALID,917.478,VALID,0,VALID,99.3556,VALID,-0.0849042,VALID,18.7297,VALID,265,VALID,0.00189394,
2001-11-06, 03:11:00,VALID,917.478,VALID,0,VALID,99.3619,VALID,-0.0509425,VALID,18.7227,VALID,265,VALID,0.00183824,
2001-11-06, 03:12:00,VALID,917.467,VALID,0,VALID,99.3632,VALID,-0.0339617,VALID,18.7193,VALID,265,VALID,0,
2001-11-06, 03:13:00,VALID,917.465,VALID,0,VALID,99.3581,VALID,-0.0509425,VALID,18.7093,VALID,265,VALID,0,
2001-11-06, 03:14:00,VALID,917.448,VALID,0,VALID,99.3492,VALID,-0.0509425,VALID,18.71,VALID,265,VALID,0,
2001-11-06, 03:15:00,VALID,917.45,VALID,0,VALID,99.3428,VALID,-0.0509425,VALID,18.6964,VALID,265,VALID,0,
2001-11-06, 03:16:00,VALID,917.439,VALID,0,VALID,99.339,VALID,-0.0339617,VALID,18.6971,VALID,265,VALID,0,
2001-11-06, 03:17:00,VALID,917.434,VALID,0,VALID,99.3403,VALID,-0.0169808,VALID,18.6969,VALID,265,VALID,0,
2001-11-06, 03:18:00,VALID,917.43,VALID,0,VALID,99.3441,VALID,-0.0169808,VALID,18.6964,VALID,265,VALID,0,
2001-11-06, 03:19:00,VALID,917.427,VALID,0,VALID,99.3479,VALID,0,VALID,18.7061,VALID,265,VALID,0,
2001-11-06, 03:20:00,VALID,917.412,VALID,0,VALID,99.3416,VALID,0,VALID,18.7061,VALID,265,VALID,0,
2001-11-06, 03:21:00,VALID,917.399,VALID,0,VALID,99.3441,VALID,0,VALID,18.6934,VALID,265,VALID,0,
2001-11-06, 03:22:00,VALID,917.412,VALID,0,VALID,99.3365,VALID,0,VALID,18.6766,VALID,265,VALID,0,
2001-11-06, 03:23:00,VALID,917.406,VALID,0,VALID,99.3466,VALID,0,VALID,18.6704,VALID,265,VALID,0,
2001-11-06, 03:24:00,VALID,917.404,VALID,0,VALID,99.3428,VALID,0,VALID,18.6807,VALID,265,VALID,0,
2001-11-06, 03:25:00,VALID,917.406,VALID,0,VALID,99.3365,VALID,0,VALID,18.6634,VALID,265,VALID,0,
2001-11-06, 03:26:00,VALID,917.398,VALID,0,VALID,99.3212,VALID,0,VALID,18.6507,VALID,265,VALID,0,
2001-11-06, 03:27:00,VALID,917.392,VALID,0,VALID,99.3301,VALID,0,VALID,18.6475,VALID,265,VALID,0,
2001-11-06, 03:28:00,VALID,917.382,VALID,0,VALID,99.3403,VALID,0,VALID,18.6611,VALID,265,VALID,0,
2001-11-06, 03:29:00,VALID,917.373,VALID,0,VALID,99.3403,VALID,-0.0169808,VALID,18.6443,VALID,265,VALID,0,
2001-11-06, 03:30:00,VALID,917.379,VALID,0,VALID,99.3466,VALID,0,VALID,18.6477,VALID,265,VALID,0,
2001-11-06, 03:31:00,VALID,917.376,VALID,0,VALID,99.3517,VALID,0,VALID,18.6544,VALID,265,VALID,0,
2001-11-06, 03:32:00,VALID,917.372,VALID,0,VALID,99.3543,VALID,0,VALID,18.651,VALID,265,VALID,0,
2001-11-06, 03:33:00,VALID,917.36,VALID,0,VALID,99.3632,VALID,0,VALID,18.6445,VALID,265,VALID,0,
2001-11-06, 03:34:00,VALID,917.352,VALID,0,VALID,99.3721,VALID,0,VALID,18.6443,VALID,265,VALID,0,